Find Starlink 33760

NORAD ID: 63764 Int'l Des: 2025-089 Owner: SPXS Country: US Constellation: starlink operational
LEOCIRCULAR

实时位置

正在加载3D地球...

关于 Starlink 33760

正在加载描述...

即将过境

Passes for default location (London). Set your location on the main map for personalized predictions.

高度历史

Loading altitude history...

两行轨道根数

1 63764U 25089P 26127.25947032 .00018694 00000-0 68722-3 0 9996
2 63764 43.0016 74.5842 0001555 289.8356 70.2328 15.27575108 57914
Epoch: May 7, 2026 • Age: 25 hours

当前状态

高度 483.3 km
速度 7.63 km/s
星下点 26.52°N, 121.95°E
发射日期 Apr 29, 2025
运行时间 1 years
类型 internet

技术详情

分类 Payload
质量 575.00 kg
干质量 530.00 kg
总质量 575.00 kg
长度 0.30 m
直径 4.10 m
跨度 29.00 m
形状 Box + pan
制造商 SPXS
平台类型 Starlink V2MO
阶段状态 In Orbit
所有者/国家 SPXS/US

Most Searched